Weather History for PATA - May, 2013

Change the Weather History Date:

Thursday, May 2, 2013

  Actual Average Record
Temperature  
Mean Temperature 16 °F -  
Max Temperature 30 °F 48 °F 68 °F (2014)
Min Temperature 3 °F 27 °F 3 °F (2013)
Degree Days  
Heating Degree Days 48    
Moisture  
Dew Point 6 °F    
Average Humidity 56    
Maximum Humidity 80    
Minimum Humidity 41    
Precipitation  
Precipitation 0.00 in - - ()
Snow  
Snow 0.00 in - - ()
Snow Depth 9.00 in    
Sea Level Pressure  
Sea Level Pressure 29.95 in    
Wind  
Wind Speed 4 mph (ESE)    
Max Wind Speed 13 mph    
Max Gust Speed -    
Visibility 10 miles    
Events      
Averages and records for this station are not official NWS values.
T = Trace of Precipitation, MM = Missing Value Source: NWS Daily Summary

Daily Weather History Graph

Daily Weather History Graph

Search for Another Location

Airport or City:

Trip Planner

Search our weather history database for the weather conditions in past years. The results will help you decide how hot, cold, wet, or windy it might be!

Date:

Astronomy

May. 02, 2013 Rise Set
Actual Time 5:27 AM AKDT 10:46 PM AKDT
Civil Twilight 4:08 AM AKDT 12:06 AM AKDT
Nautical Twilight Sun does not set Sun does not set
Astronomical Twilight Sun does not set Sun does not set
Moon 4:10 AM AKDT 1:04 PM AKDT
Length of Visible Light 19h 57m
Length of Day
17h 18m
Last Quarter, 46% of the Moon is Illuminated
May 2
Last Quarter
May 9
New
May 17
First Quarter
May 24
Full
May 31
Last Quarter

Hourly Weather History & Observations

Time (AKDT) Temp. Windchill Dew Point Humidity Pressure Visibility Wind Dir Wind Speed Gust Speed Precip Events Conditions
12:52 AM 16.0 °F 7.4 °F 5.0 °F 62% 29.85 in 10.0 mi North 5.8 mph - N/A   Clear
1:52 AM 15.1 °F - 3.0 °F 59% 29.87 in 10.0 mi Calm Calm - N/A   Clear
2:52 AM 10.0 °F - 3.0 °F 73% 29.88 in 10.0 mi Calm Calm - N/A   Clear
3:52 AM 7.0 °F - 1.9 °F 80% 29.90 in 10.0 mi Calm Calm - N/A   Clear
4:52 AM 5.0 °F - -0.9 °F 76% 29.91 in 10.0 mi Calm Calm - N/A   Clear
5:52 AM 3.9 °F -6.9 °F -2.0 °F 76% 29.92 in 10.0 mi NW 5.8 mph - N/A   Clear
6:52 AM 6.1 °F - -0.0 °F 76% 29.93 in 10.0 mi Calm Calm - N/A   Clear
7:52 AM 10.9 °F - 1.9 °F 67% 29.94 in 10.0 mi Calm Calm - N/A   Clear
8:52 AM 16.0 °F - 1.9 °F 54% 29.95 in 10.0 mi Calm Calm - N/A   Clear
9:52 AM 19.0 °F 9.0 °F 5.0 °F 54% 29.96 in 10.0 mi ESE 8.1 mph - N/A   Clear
10:52 AM 19.9 °F 10.1 °F 8.1 °F 60% 29.96 in 10.0 mi SE 8.1 mph - N/A   Clear
11:52 AM 23.0 °F 13.1 °F 8.1 °F 53% 29.96 in 10.0 mi SE 9.2 mph - N/A   Clear
12:52 PM 25.0 °F 16.3 °F 10.0 °F 53% 29.96 in 10.0 mi ESE 8.1 mph - N/A   Clear
1:52 PM 27.0 °F 23.0 °F 7.0 °F 43% 29.97 in 10.0 mi ESE 3.5 mph - N/A   Clear
2:52 PM 28.0 °F 24.2 °F 9.0 °F 45% 29.97 in 10.0 mi SE 3.5 mph - N/A   Clear
3:52 PM 28.9 °F 20.4 °F 9.0 °F 43% 29.97 in 10.0 mi ESE 9.2 mph - N/A   Clear
4:52 PM 30.0 °F 20.5 °F 12.0 °F 47% 29.96 in 10.0 mi SE 11.5 mph - N/A   Partly Cloudy
5:52 PM 30.9 °F 22.8 °F 10.0 °F 42% 29.96 in 10.0 mi ESE 9.2 mph - N/A   Partly Cloudy
6:52 PM 30.0 °F 20.0 °F 12.0 °F 47% 29.96 in 10.0 mi SE 12.7 mph - N/A   Partly Cloudy
7:52 PM 30.0 °F 21.1 °F 10.9 °F 45% 29.96 in 10.0 mi ESE 10.4 mph - N/A   Scattered Clouds
8:52 PM 30.0 °F 20.5 °F 9.0 °F 41% 29.97 in 10.0 mi East 11.5 mph - N/A   Scattered Clouds
9:52 PM 28.0 °F 20.8 °F 9.0 °F 45% 29.98 in 10.0 mi East 6.9 mph - N/A   Clear
10:52 PM 26.1 °F 21.9 °F 8.1 °F 47% 30.00 in 10.0 mi East 3.5 mph - N/A   Clear
11:52 PM 21.9 °F - 9.0 °F 58% 30.01 in 10.0 mi Calm Calm - N/A   Clear